{"data":{"norad_id":69360,"epoch":"2026-09-20T01:29:39.676128Z","epoch_age_seconds":66721,"freshness":"FRESH","line1":"1 69360U 26123H   26263.06226477  .00014173  00000+0  42972-3 0  9993","line2":"2 69360  53.1588 143.7083 0001149  99.2429 260.8703 15.34406087 16801","mean_motion":15.34406087,"eccentricity":0.0001149,"inclination_deg":53.1588,"raan_deg":143.7083,"arg_perigee_deg":99.2429,"mean_anomaly_deg":260.8703,"bstar":0.00042972,"rev_number":1680,"period_min":93.847385786602,"perigee_km":461.89913795528,"apogee_km":463.47115888499,"semimajor_km":6840.8221484201,"source":"CELESTRAK","updated_at":"2026-09-20T09:00:44.165674Z"}}